Terre Haute, IN

3:34 AM EST on December 11, 2019 (GMT -0500)
Terre Haute International-Hulman

Weather History for KHUF - October, 2019

Change the Weather History Date:

Wednesday, October 2, 2019

  Actual Average Record
Temperature  
Mean Temperature 81 °F 59 °F  
Max Temperature 92 °F 72 °F 92 °F (2019)
Min Temperature 69 °F 47 °F 28 °F (2003)
Degree Days  
Heating Degree Days 0 7  
Month to date heating degree days 0 14  
Since 1 July heating degree days 2 92  
Cooling Degree Days 16 1  
Month to date cooling degree days 31 2  
Year to date cooling degree days 1295 980  
Growing Degree Days 30 (Base 50)    
Moisture  
Dew Point 67 °F    
Average Humidity 69    
Maximum Humidity 90    
Minimum Humidity 47    
Precipitation  
Precipitation 0.00 in 0.10 in 2.48 in (2014)
Month to date precipitation 0.00 0.21  
Year to date precipitation 37.93 34.91  
Sea Level Pressure  
Sea Level Pressure 29.92 in    
Wind  
Wind Speed 7 mph (SW)    
Max Wind Speed 17 mph    
Max Gust Speed 26 mph    
Visibility 10 miles    
Events      
T = Trace of Precipitation, MM = Missing Value Source: NWS Daily Summary

Daily Weather History Graph

Daily Weather History Graph

Search for Another Location

Airport or City:

Astronomy

Oct. 02, 2019 Rise Set
Actual Time 7:46 AM EDT 7:30 PM EDT
Civil Twilight 7:19 AM EDT 7:57 PM EDT
Nautical Twilight 6:48 AM EDT 8:28 PM EDT
Astronomical Twilight 6:16 AM EDT 8:59 PM EDT
Moon 12:10 PM EDT (10/2) 10:25 PM EDT (10/2)
Length of Visible Light 12h 37m
Length of Day
11h 44m
Waxing Crescent, 20% of the Moon is Illuminated
Oct 2
Waxing Crescent
Oct 5
First Quarter
Oct 13
Full
Oct 21
Last Quarter
Oct 27
New

Hourly Weather History & Observations

Time (EDT) Temp. Heat Index Dew Point Humidity Pressure Visibility Wind Dir Wind Speed Gust Speed Precip Events Conditions
12:53 AM 78.1 °F - 64.9 °F 64% 29.93 in 10.0 mi SSW 6.9 mph - N/A   Clear
1:53 AM 77.0 °F - 64.9 °F 66% 29.93 in 10.0 mi SW 6.9 mph - N/A   Clear
2:53 AM 73.9 °F - 64.9 °F 73% 29.93 in 10.0 mi SW 4.6 mph - N/A   Clear
3:53 AM 75.0 °F - 66.0 °F 73% 29.91 in 10.0 mi SSW 6.9 mph - N/A   Clear
4:53 AM 73.9 °F - 66.0 °F 76% 29.91 in 10.0 mi SW 5.8 mph - N/A   Clear
5:53 AM 73.0 °F - 66.0 °F 79% 29.93 in 10.0 mi SW 4.6 mph - N/A   Clear
6:53 AM 71.1 °F - 66.0 °F 84% 29.94 in 10.0 mi South 4.6 mph - N/A   Clear
7:53 AM 70.0 °F - 64.9 °F 84% 29.94 in 10.0 mi South 4.6 mph - N/A   Clear
8:53 AM 73.9 °F - 66.0 °F 76% 29.96 in 10.0 mi SSW 10.4 mph - N/A   Clear
9:53 AM 78.1 °F - 66.9 °F 68% 29.96 in 10.0 mi SW 9.2 mph 18.4 mph N/A   Clear
10:53 AM 82.0 °F 84.5 °F 66.9 °F 60% 29.96 in 10.0 mi WSW 15.0 mph 20.7 mph N/A   Clear
11:53 AM 84.9 °F 87.6 °F 66.9 °F 55% 29.95 in 10.0 mi SW 13.8 mph 23.0 mph N/A   Clear
12:53 PM 89.1 °F 92.9 °F 68.0 °F 50% 29.94 in 10.0 mi WSW 16.1 mph 25.3 mph N/A   Clear
1:53 PM 90.0 °F 93.6 °F 68.0 °F 48% 29.93 in 10.0 mi WSW 10.4 mph 21.9 mph N/A   Clear
2:53 PM 90.0 °F 92.8 °F 66.9 °F 46% 29.90 in 10.0 mi WSW 10.4 mph 23.0 mph N/A   Scattered Clouds
3:53 PM 90.0 °F 93.6 °F 68.0 °F 48% 29.90 in 10.0 mi WSW 12.7 mph - N/A   Scattered Clouds
4:53 PM 91.0 °F 95.2 °F 68.0 °F 47% 29.89 in 10.0 mi WSW 10.4 mph - N/A   Partly Cloudy
5:53 PM 90.0 °F 92.8 °F 66.9 °F 46% 29.88 in 10.0 mi WSW 13.8 mph 23.0 mph N/A   Partly Cloudy
6:53 PM 88.0 °F 90.7 °F 66.9 °F 49% 29.90 in 10.0 mi WSW 9.2 mph 17.3 mph N/A   Scattered Clouds
7:53 PM 84.0 °F 86.5 °F 66.9 °F 56% 29.91 in 10.0 mi Calm Calm - N/A   Mostly Cloudy
8:53 PM 77.0 °F - 69.1 °F 76% 29.91 in 10.0 mi Calm Calm - N/A   Partly Cloudy
9:53 PM 73.9 °F - 66.9 °F 79% 29.91 in 10.0 mi Calm Calm - N/A   Clear
10:53 PM 72.0 °F - 66.9 °F 84% 29.90 in 10.0 mi Calm Calm - N/A   Clear
11:53 PM 70.0 °F - 66.0 °F 87% 29.91 in 10.0 mi Calm Calm - N/A   Clear